FW6715 Weather Reports


Display with metric or nautical units.
time (UTC)temp
F
wind
direction
speed
MPH
gust
MPH
rain 1hr
in
rain 24hr
in
rain mn
in
humidity
%
barometer
mb
20260507010503 52 243 3.0 3.0 0.05 0.79 0.79 97 1003.6
20260507005959 52 243 2.0 3.0 0.00 0.78 0.78 97 1003.8
20260507005456 52 244 1.0 2.0 0.00 0.78 0.78 97 1003.7
20260507004947 52 244 3.0 5.0 0.00 0.78 0.78 98 1003.7
20260507004444 52 244 2.0 2.0 0.00 0.78 0.78 97 1003.4
20260507003942 52 243 4.0 5.0 0.00 0.78 0.78 98 1003.3
20260507003437 52 244 0.0 1.0 0.00 0.78 0.78 99 1003.2
20260507002932 53 244 1.0 2.0 0.00 0.78 0.78 99 1003.4
20260507002429 53 244 1.0 1.0 0.00 0.78 0.78 98 1003.3
20260507001926 53 244 1.0 3.0 0.00 0.78 0.78 98 1003.0
20260507001422 53 244 3.0 3.0 0.00 0.78 0.78 99 1002.7
20260507000920 53 244 0.0 3.0 0.00 0.78 0.78 99 1002.7
20260507000415 53 243 0.0 2.0 0.00 0.78 0.78 99 1002.7
20260506235911 53 243 0.0 2.0 0.00 0.78 0.78 99 1002.5
20260506235409 54 244 1.0 3.0 0.00 0.78 0.78 99 1002.6
20260506234904 54 244 1.0 3.0 0.00 0.78 0.78 99 1002.3
20260506234403 54 244 1.0 1.0 0.00 0.78 0.78 99 1002.4
20260506233900 54 244 2.0 2.0 0.00 0.78 0.78 99 1002.6
20260506233355 54 244 3.0 5.0 0.00 0.78 0.78 99 1002.3
20260506232852 55 244 3.0 6.0 0.00 0.78 0.78 98 1002.4
20260506232348 55 244 4.0 8.0 0.00 0.78 0.78 98 1002.2
20260506231844 55 244 5.0 9.0 0.00 0.78 0.78 98 1002.3
20260506231343 55 244 6.0 8.0 0.00 0.78 0.78 99 1002.2
20260506230840 56 244 5.0 6.0 0.00 0.78 0.78 99 1002.0
20260506230336 57 244 5.0 7.0 0.00 0.78 0.78 99 1002.0
20260506225832 57 244 5.0 6.0 0.00 0.78 0.78 99 1001.8
20260506225330 57 244 2.0 2.0 0.00 0.78 0.78 99 1001.7
20260506224826 58 244 0.0 0.0 0.00 0.78 0.78 99 1001.7
20260506224323 58 244 2.0 2.0 0.00 0.78 0.78 99 1001.8
20260506223820 58 244 3.0 5.0 0.00 0.78 0.78 99 1001.8
20260506223315 58 244 4.0 5.0 0.12 0.78 0.78 99 1001.7
20260506222813 59 243 3.0 3.0 0.59 0.78 0.78 99 1001.5
20260506222308 59 244 5.0 5.0 0.42 0.71 0.71 99 1001.7
20260506221806 60 244 1.0 1.0 0.35 0.66 0.66 99 1001.5
20260506221303 60 244 1.0 2.0 0.35 0.63 0.63 99 1001.4
20260506220801 60 244 3.0 6.0 0.28 0.60 0.60 99 1001.4
20260506220255 60 244 1.0 2.0 0.19 0.57 0.57 99 1001.4
20260506215752 60 244 1.0 3.0 0.14 0.56 0.56 99 1001.3
20260506215248 60 244 3.0 3.0 0.12 0.54 0.54 99 1001.4
20260506214744 60 244 0.0 3.0 0.12 0.53 0.53 99 1001.5
20260506214242 60 244 1.0 2.0 0.12 0.52 0.52 99 1001.6
20260506213740 60 243 1.0 2.0 0.17 0.51 0.51 99 1001.6
20260506213231 60 244 0.0 1.0 0.31 0.50 0.50 99 1001.5
20260506212728 60 244 1.0 1.0 0.17 0.47 0.47 99 1001.8
20260506212223 60 244 1.0 2.0 0.12 0.45 0.45 99 1001.7
20260506211714 60 244 0.0 2.0 0.14 0.45 0.45 99 1001.7
20260506211210 60 244 1.0 3.0 0.07 0.43 0.43 99 1001.7
20260506210707 60 244 3.0 3.0 0.00 0.42 0.42 99 1001.7
20260506210204 61 243 4.0 5.0 0.00 0.42 0.42 99 1001.7
20260506205701 61 244 0.0 2.0 0.05 0.42 0.42 99 1001.8
20260506205156 61 243 0.0 1.0 0.00 0.41 0.41 99 1001.8
20260506204654 61 243 0.0 1.0 0.07 0.41 0.41 99 1001.9
20260506204151 61 244 0.0 0.0 0.00 0.40 0.40 99 1002.1
20260506203649 60 244 2.0 3.0 0.00 0.40 0.40 99 1002.0
20260506203146 61 244 2.0 3.0 0.05 0.40 0.40 99 1002.1
20260506202644 61 244 1.0 3.0 0.05 0.40 0.40 99 1002.2
20260506202139 61 244 2.0 3.0 0.00 0.39 0.39 99 1002.3
20260506201637 61 244 1.0 1.0 0.00 0.39 0.39 99 1002.2
20260506201133 61 244 0.0 1.0 0.00 0.39 0.39 99 1002.2
20260506200630 60 243 1.0 1.0 0.07 0.39 0.39 99 1002.2
20260506200127 60 244 4.0 6.0 0.07 0.39 0.39 99 1002.5
20260506195623 60 244 1.0 5.0 0.00 0.38 0.38 99 1002.3
20260506195119 60 244 0.0 1.0 0.05 0.38 0.38 99 1002.4
20260506194617 60 244 0.0 1.0 0.00 0.37 0.37 99 1002.6
20260506194113 60 244 1.0 1.0 0.07 0.37 0.37 99 1002.7
20260506193611 60 244 1.0 2.0 0.07 0.37 0.37 99 1002.6
20260506193108 60 244 0.0 1.0 0.05 0.36 0.36 99 1002.7
20260506192605 60 244 1.0 2.0 0.05 0.36 0.36 99 1003.0
20260506192101 60 244 0.0 2.0 0.07 0.35 0.35 99 1003.1
20260506191557 60 244 1.0 2.0 0.07 0.35 0.35 99 1003.3
20260506191053 60 244 4.0 6.0 0.05 0.34 0.34 99 1003.0
20260506190551 60 243 1.0 3.0 0.07 0.34 0.34 99 1002.7
20260506190047 60 244 0.0 3.0 0.12 0.32 0.32 99 1003.0
20260506185544 60 244 3.0 3.0 0.07 0.30 0.30 99 1002.7
20260506185036 60 244 2.0 3.0 0.07 0.30 0.30 99 1003.0
20260506184533 60 243 2.0 3.0 0.05 0.29 0.29 99 1002.8
20260506184030 60 243 0.0 2.0 0.12 0.29 0.29 99 1003.0
20260506183526 60 243 1.0 1.0 0.14 0.28 0.28 99 1002.8
20260506183023 59 244 1.0 2.0 0.12 0.27 0.27 99 1003.1
20260506182520 59 244 3.0 3.0 0.12 0.26 0.26 99 1003.4
20260506182011 60 244 2.0 2.0 0.12 0.25 0.25 99 1003.2
20260506181509 60 244 0.0 1.0 0.12 0.24 0.24 99 1003.3
20260506181006 59 244 0.0 3.0 0.12 0.23 0.23 99 1003.7
20260506180502 59 243 1.0 2.0 0.12 0.22 0.22 99 1003.7
20260506175959 59 244 1.0 2.0 0.12 0.21 0.21 99 1003.8
20260506175455 60 244 3.0 3.0 0.12 0.20 0.20 99 1003.8
20260506174946 60 244 0.0 1.0 0.12 0.19 0.19 99 1003.8
20260506174444 60 244 0.0 1.0 0.12 0.18 0.18 99 1003.8
20260506173940 60 244 1.0 1.0 0.12 0.17 0.17 99 1004.1
20260506173438 60 244 0.0 1.0 0.19 0.16 0.16 99 1004.0
20260506172935 60 244 0.0 1.0 0.19 0.15 0.15 99 1003.9
20260506172432 60 244 0.0 1.0 0.12 0.13 0.13 99 1004.2
20260506171928 60 244 0.0 0.0 0.12 0.12 0.12 99 1004.3
20260506171425 60 244 0.0 0.0 0.12 0.11 0.11 99 1004.3
20260506170918 60 244 0.0 1.0 0.12 0.10 0.10 99 1004.5
20260506170413 60 244 0.0 1.0 0.12 0.09 0.09 99 1004.5
20260506165907 60 244 0.0 0.0 0.12 0.08 0.08 99 1004.1
20260506165405 60 244 0.0 1.0 0.05 0.07 0.07 99 1004.5
20260506164901 60 244 0.0 0.0 0.07 0.06 0.06 99 1004.4
20260506164357 60 244 1.0 1.0 0.12 0.06 0.06 99 1004.4
20260506163855 60 244 0.0 1.0 0.05 0.05 0.05 99 1004.4
20260506163349 60 244 2.0 3.0 0.00 0.04 0.04 98 1004.4
20260506162845 60 244 2.0 2.0 0.00 0.04 0.04 97 1004.6
20260506162343 60 244 1.0 2.0 0.07 0.04 0.04 97 1004.7
20260506161835 60 244 2.0 2.0 0.07 0.04 0.04 96 1004.6
20260506161332 61 244 1.0 1.0 0.00 0.03 0.03 96 1004.9
20260506160829 60 243 0.0 1.0 0.00 0.03 0.03 95 1005.2
20260506160325 61 244 1.0 2.0 0.00 0.03 0.03 94 1005.2
20260506155824 62 244 1.0 1.0 0.05 0.03 0.03 96 1005.4
20260506155320 61 244 0.0 1.0 0.05 0.03 0.03 97 1005.4
20260506153433 61 244 0.0 0.0 0.07 0.02 0.02 95 1005.6
20260506152931 61 244 0.0 0.0 0.07 0.02 0.02 95 1005.7
20260506152427 61 244 0.0 0.0 0.00 0.01 0.01 93 1005.6
20260506151926 61 243 0.0 1.0 0.00 0.01 0.01 91 1005.6
20260506151423 61 244 0.0 1.0 0.00 0.01 0.01 90 1005.5
20260506150921 62 244 0.0 1.0 0.00 0.01 0.01 90 1005.6
20260506150416 61 244 1.0 1.0 0.00 0.01 0.01 89 1005.5
20260506145914 61 244 0.0 0.0 0.00 0.01 0.01 90 1005.7
20260506145409 62 244 0.0 0.0 0.00 0.01 0.01 91 1005.7
20260506144907 61 244 0.0 0.0 0.00 0.01 0.01 88 1005.6
20260506144403 61 244 1.0 2.0 0.00 0.01 0.01 87 1005.8
20260506143902 61 244 1.0 3.0 0.00 0.01 0.01 89 1005.7
20260506143358 61 244 0.0 1.0 0.00 0.01 0.01 88 1005.8
20260506142857 61 244 0.0 0.0 0.00 0.01 0.01 89 1005.8
20260506142355 61 244 0.0 1.0 0.00 0.01 0.01 89 1005.9
20260506141853 60 244 1.0 1.0 0.00 0.01 0.01 92 1005.5
20260506141350 59 244 0.0 2.0 0.00 0.01 0.01 94 1005.5
20260506140848 59 244 0.0 2.0 0.00 0.01 0.01 95 1005.7
20260506140345 59 244 0.0 2.0 0.00 0.01 0.01 97 1005.7
20260506135842 58 244 1.0 1.0 0.00 0.01 0.01 99 1005.6
20260506135338 58 244 1.0 1.0 0.00 0.01 0.01 99 1005.8
20260506134835 57 244 0.0 2.0 0.00 0.01 0.01 99 1005.8
20260506134331 58 244 0.0 1.0 0.00 0.01 0.01 99 1005.9
20260506133829 58 244 0.0 1.0 0.00 0.01 0.01 99 1005.9
20260506133325 58 244 0.0 1.0 0.00 0.01 0.01 99 1006.0
20260506132822 58 244 1.0 1.0 0.00 0.01 0.01 99 1006.0
20260506132319 58 244 1.0 2.0 0.00 0.01 0.01 99 1006.1
20260506131817 58 244 0.0 1.0 0.00 0.01 0.01 99 1006.0
20260506131313 58 244 0.0 0.0 0.00 0.01 0.01 99 1006.0
20260506130810 58 244 0.0 1.0 0.00 0.01 0.01 99 1006.2
20260506130307 57 244 1.0 2.0 0.00 0.01 0.01 99 1006.1
20260506125805 58 244 0.0 0.0 0.00 0.01 0.01 99 1006.4
20260506125305 58 244 0.0 0.0 0.00 0.01 0.01 99 1005.9
20260506124801 57 244 0.0 0.0 0.00 0.01 0.01 99 1006.1
20260506124258 57 244 2.0 2.0 0.00 0.01 0.01 99 1006.1
20260506123755 57 244 1.0 2.0 0.00 0.01 0.01 99 1006.0
20260506123254 57 244 0.0 0.0 0.00 0.01 0.01 99 1005.8
20260506122750 56 244 1.0 2.0 0.00 0.01 0.01 99 1005.9
20260506122247 57 244 0.0 0.0 0.00 0.01 0.01 99 1006.3
20260506121746 56 244 0.0 1.0 0.00 0.01 0.01 99 1006.2
20260506121242 56 244 1.0 1.0 0.00 0.01 0.01 99 1006.2
20260506120739 56 244 0.0 0.0 0.00 0.01 0.01 99 1006.3
20260506120237 56 244 0.0 1.0 0.00 0.01 0.01 99 1006.4
20260506115735 56 244 0.0 0.0 0.00 0.01 0.01 99 1006.4
20260506115233 56 244 0.0 1.0 0.00 0.01 0.01 99 1006.1
20260506114730 55 244 1.0 2.0 0.00 0.01 0.01 99 1006.3
20260506114227 55 244 0.0 0.0 0.00 0.01 0.01 99 1006.4
20260506113726 55 244 0.0 0.0 0.00 0.01 0.01 99 1006.3
20260506113223 55 244 0.0 0.0 0.00 0.01 0.01 99 1006.4
20260506112719 55 244 0.0 0.0 0.00 0.01 0.01 99 1006.2
20260506112217 54 244 0.0 1.0 0.00 0.01 0.01 99 1006.4
20260506111714 54 244 0.0 0.0 0.00 0.01 0.01 99 1006.3
20260506111213 54 244 0.0 2.0 0.00 0.01 0.01 99 1006.2
20260506110709 54 244 1.0 1.0 0.00 0.01 0.01 99 1006.4
20260506110207 54 244 0.0 1.0 0.00 0.01 0.01 99 1006.3
20260506105703 53 244 1.0 1.0 0.00 0.01 0.01 99 1006.4
20260506105200 53 244 0.0 0.0 0.00 0.01 0.01 99 1006.3
20260506104658 54 244 1.0 1.0 0.00 0.01 0.01 99 1006.5
20260506104155 54 244 0.0 1.0 0.00 0.01 0.01 99 1006.6
20260506103652 53 244 0.0 0.0 0.00 0.01 0.01 99 1006.4
20260506103149 53 244 0.0 0.0 0.00 0.01 0.01 99 1006.2
20260506102647 53 244 0.0 0.0 0.00 0.01 0.01 99 1006.1
20260506102144 53 244 0.0 0.0 0.00 0.01 0.01 99 1006.1
20260506101641 53 244 0.0 0.0 0.00 0.01 0.01 99 1006.4
20260506101138 54 244 0.0 0.0 0.00 0.01 0.01 99 1006.1
20260506100637 53 244 0.0 0.0 0.00 0.01 0.01 99 1006.2
20260506100134 53 244 0.0 0.0 0.00 0.01 0.01 99 1006.1
20260506095633 53 244 1.0 1.0 0.00 0.01 0.01 99 1006.2
20260506095129 53 244 1.0 1.0 0.00 0.01 0.01 99 1006.2
20260506094626 52 244 1.0 1.0 0.00 0.01 0.01 99 1006.1
20260506094124 53 244 0.0 0.0 0.00 0.01 0.01 99 1006.3
20260506093622 53 244 0.0 1.0 0.00 0.01 0.01 99 1006.1
20260506093119 54 244 1.0 1.0 0.00 0.01 0.01 99 1006.2
20260506092617 54 244 0.0 0.0 0.00 0.01 0.01 99 1006.1
20260506092114 53 244 0.0 1.0 0.00 0.01 0.01 99 1006.1
20260506091612 54 244 0.0 0.0 0.00 0.01 0.01 99 1006.1
20260506091109 54 244 0.0 0.0 0.00 0.01 0.01 99 1006.1
20260506090607 54 244 0.0 0.0 0.00 0.01 0.01 99 1006.4
20260506085600 54 244 0.0 0.0 0.00 0.01 0.01 99 1006.5
20260506085056 54 244 0.0 0.0 0.00 0.01 0.01 99 1006.4
20260506084553 54 244 1.0 2.0 0.00 0.01 0.01 99 1006.4
20260506084049 54 244 2.0 2.0 0.00 0.01 0.01 99 1006.3
20260506083547 54 244 2.0 3.0 0.00 0.01 0.01 99 1006.3
20260506083044 55 244 0.0 1.0 0.00 0.01 0.01 99 1006.2
20260506082540 55 244 0.0 0.0 0.00 0.01 0.01 99 1006.2
20260506082036 55 244 2.0 2.0 0.00 0.01 0.01 99 1006.3
20260506081535 55 244 0.0 0.0 0.00 0.01 0.01 99 1006.0
20260506081032 55 244 0.0 0.0 0.00 0.01 0.01 99 1006.2
20260506080530 56 244 1.0 1.0 0.00 0.01 0.01 99 1006.1
20260506073513 55 244 0.0 0.0 0.00 0.01 0.01 99 1006.3
20260506073010 55 244 0.0 1.0 0.00 0.01 0.01 99 1006.4
20260506072507 55 244 0.0 0.0 0.00 0.01 0.01 99 1006.1
20260506072005 55 244 0.0 0.0 0.00 0.01 0.01 99 1006.1
20260506071503 55 244 0.0 0.0 0.00 0.01 0.01 99 1006.1
20260506070959 55 244 0.0 0.0 0.00 0.01 0.01 99 1006.1
20260506070456 55 244 0.0 0.0 0.00 0.01 0.01 99 1005.9
20260506062434 55 244 0.0 2.0 0.00 0.01 0.01 99 1006.1
20260506061930 55 244 1.0 3.0 0.00 0.01 0.01 99 1006.4
20260506061426 55 244 0.0 0.0 0.00 0.01 0.01 99 1006.0
20260506060925 55 244 0.0 0.0 0.00 0.01 0.01 99 1006.1
20260506060422 55 244 1.0 1.0 0.00 0.01 0.01 99 1005.8
20260506051354 56 244 0.0 0.0 0.00 0.00 0.00 99 1005.8
20260506050851 56 244 0.0 0.0 0.00 0.00 0.00 99 1005.9
20260506050349 56 244 0.0 0.0 0.00 0.00 0.00 99 1006.0
20260506044839 56 244 0.0 0.0 0.00 0.00 0.00 99 1006.1
20260506044337 56 244 0.0 2.0 0.00 0.00 0.00 99 1006.2
20260506043834 55 244 0.0 1.0 0.00 0.00 0.00 99 1006.0
20260506043331 55 244 0.0 0.0 0.00 0.00 0.00 99 1006.1
20260506042829 55 244 0.0 0.0 0.00 0.00 0.00 99 1006.2
20260506042328 55 244 1.0 2.0 0.00 0.00 0.00 99 1006.1
20260506041827 56 244 0.0 0.0 0.00 0.00 0.00 99 1006.2
20260506041323 56 244 0.0 0.0 0.00 0.00 0.00 99 1005.8
20260506040820 55 244 0.0 1.0 0.00 0.00 0.00 99 1006.0
20260506040318 56 244 0.0 0.0 0.00 0.00 0.00 99 1006.3
20260506035814 56 244 0.0 0.0 0.00 0.09 0.09 99 1006.0
20260506035311 56 244 0.0 0.0 0.00 0.09 0.09 99 1006.0
20260506034809 56 244 0.0 0.0 0.00 0.09 0.09 99 1005.9
20260506034306 56 244 1.0 2.0 0.00 0.09 0.09 99 1005.9
20260506033802 56 244 0.0 0.0 0.00 0.09 0.09 99 1006.0
20260506033259 56 244 0.0 1.0 0.00 0.09 0.09 99 1006.1
20260506032756 56 244 1.0 2.0 0.00 0.09 0.09 99 1006.0
20260506032253 56 244 0.0 0.0 0.00 0.09 0.09 99 1006.3
20260506031750 56 244 1.0 1.0 0.00 0.09 0.09 99 1006.1
20260506031247 56 244 0.0 1.0 0.00 0.09 0.09 99 1006.3
20260506030745 55 244 0.0 1.0 0.00 0.09 0.09 99 1006.3
20260506030243 56 244 0.0 1.0 0.00 0.09 0.09 99 1006.2
20260506025739 56 244 0.0 1.0 0.00 0.09 0.09 99 1006.4
20260506025236 56 244 2.0 2.0 0.00 0.09 0.09 99 1006.0
20260506024732 56 244 1.0 2.0 0.00 0.09 0.09 99 1005.9
20260506024228 56 244 0.0 1.0 0.00 0.09 0.09 99 1005.9
20260506023720 56 244 1.0 1.0 0.00 0.09 0.09 99 1005.9
20260506023217 56 244 0.0 1.0 0.00 0.09 0.09 99 1005.9
20260506022714 56 244 0.0 1.0 0.00 0.09 0.09 99 1005.6
20260506022212 56 244 1.0 2.0 0.00 0.09 0.09 99 1005.5
20260506021709 56 243 1.0 2.0 0.00 0.09 0.09 99 1005.6
20260506021206 56 244 1.0 2.0 0.00 0.09 0.09 99 1005.6
20260506020703 57 244 0.0 0.0 0.00 0.09 0.09 99 1005.5
20260506020201 57 243 0.0 1.0 0.00 0.09 0.09 99 1005.6
20260506015658 56 244 1.0 1.0 0.00 0.09 0.09 99 1005.3
20260506015156 57 244 1.0 1.0 0.00 0.09 0.09 99 1005.6
20260506014653 57 244 0.0 0.0 0.00 0.09 0.09 99 1005.6
20260506014148 58 244 3.0 3.0 0.00 0.09 0.09 99 1005.8
20260506013646 58 244 1.0 2.0 0.00 0.09 0.09 99 1005.9
20260506013143 57 243 1.0 1.0 0.00 0.09 0.09 99 1005.5
20260506012639 57 244 2.0 2.0 0.00 0.09 0.09 99 1005.5
20260506012136 57 244 0.0 1.0 0.00 0.09 0.09 99 1005.6
20260506011634 57 243 0.0 1.0 0.00 0.09 0.09 99 1005.5
20260506011130 57 244 1.0 2.0 0.00 0.09 0.09 99 1005.4
20260506010629 57 244 1.0 1.0 0.00 0.09 0.09 99 1005.3